Blue Angels Classic - RACE 3 250 MILES

Station: GADSDEN AL - A Race

Distance: 245 Miles    

Release: 18-Oct-2020 07:25

Weather Release: Clear    Arrival: Clear

Wind at Release: Calm     Wind at Arrival: ESE 8

Temp at Release: 45°    Temp at Arrival: 75°

Lofts: 44

Birds: 110

Clocked: 71

Good Luck to Everyone!
Drops Pos Breeder Pigeon Name Color Sex Ent Arrival Speed To Win Elg Pd
500 1 Nesneb Racing Loft - AL 20066-AU20-NESN BC C 1 12:35:59.70 1386.517 00:00:00 Yes
300 2 Hynes - LA 20461-AU20-MET Aerial Assault BBWF C 1 12:36:00.60 1386.451 00:00:01 Yes
100 3 Ed Minvielle - LA 20246-AU20-A BB H 1 12:36:02.60 1386.302 00:00:03 Yes
100 3 Johnson / Perron - LA 0515-AU20-LAF BC C 1 12:36:02.60 1386.302 00:00:03 Yes
5 Nesneb Racing Loft - AL 20058-AU20-NESN BB C 2 12:36:03.20 1386.257 00:00:03 Yes
6 Hynes - LA 20469-AU20-MET Jett BB H 2 12:36:03.80 1386.213 00:00:04 Yes
7 Kelley & Buckner - TX 0061-AU20-DENT GRZ C 1 12:36:05.50 1386.087 00:00:06 Yes
8 Ledet-Gutrz - LA 20415-AU20-LEDT BB C 1 12:36:06.60 1386.005 00:00:07 Yes
9 Nesneb Racing Loft - AL 20065-AU20-NESN BB C 3 12:36:15.40 1385.352 00:00:16 Yes
10 Ruston Racers - LA 2004-AU20-NLA BC C 1 12:36:21.50 1384.899 00:00:22 Yes
11 B & J Loft - FL 20082-AU20-MOBM BC H 1 12:36:22.20 1384.848 00:00:22 Yes
12 Pidg-Inn - AL 6488-AU20-FOYS JEANINE BBWF H 1 12:36:25.50 1384.603 00:00:26 Yes
13 Baudy Loft - LA 20041-AU20-MET BC C 1 12:41:03.80 1364.284 00:05:04 Yes
14 R & M Lofts - TX 9141-AU20-AA BC H 1 12:41:05.30 1364.176 00:05:06 Yes
15 Freebyrd Loft - LA 17981-AU20-AA Beauxdacious BB 0 1 12:41:06.80 1364.068 00:05:07 Yes
16 Stephen Garansi Jr Loft - AL 0074-AU20-GARA BB C 1 12:41:07.90 1363.989 00:05:08 Yes
17 Ledet-Gutrz - LA 20163-AU20-LEDT BB C 2 12:41:08.50 1363.945 00:05:09 Yes
18 Johnson / Perron - LA 0562-AU20-LAF BC C 2 12:41:09.80 1363.852 00:05:10 Yes
19 T & A Loft - AL 20054-AU20-MET SLV C 1 12:41:11.70 1363.715 00:05:12 Yes
20 Flying D Loft - TX 0503-AU20-FLYD Foys 5855 - Flyd 255 BC H 1 12:41:12.20 1363.679 00:05:13 Yes
21 Credeur Family Loft - LA 0912-AU20-CFL BC H 1 12:41:13.20 1363.608 00:05:13 Yes
22 Cam Loft - LA 9606-AU20-AA BB C 1 12:41:14.60 1363.507 00:05:15 Yes
23 Johnson / Perron - LA 0571-AU20-LAF BC H 3 12:41:16.70 1363.356 00:05:17 Yes
24 Nesneb Racing Loft - AL 20070-AU20-NESN BC C 4 12:41:19.30 1363.169 00:05:20 Yes
25 Dyer - AL 3551-AU20-VITA BB C 1 12:44:19.70 1350.334 00:08:20 Yes
26 Texas Holiday Derby - TX 0769-AU20-NSL "668 X 15180" BB C 1 12:44:23.90 1350.038 00:08:24 Yes
27 Peach Classic - GA 72555-IF20-E BB C 1 12:44:37.30 1349.095 00:08:38 Yes
28 Credeur Family Loft - LA 0985-AU20-CFL BBWF H 2 12:51:53.20 1319.112 00:15:53 Yes
29 Ruston Racers - LA 2002-AU20-NLA BC H 2 12:51:54.50 1319.024 00:15:55 Yes
30 Dyer - AL 20079-AU20-MOBM BB H 2 12:51:55.90 1318.930 00:15:56 Yes
31 Ruston Racers - LA 2006-AU20-NLA BB 1 3 12:51:59.10 1318.715 00:15:59 Yes
32 Kelley & Buckner - TX 0042-AU20-DENT GRZ C 2 12:51:59.80 1318.668 00:16:00 Yes
33 Ledet-Gutrz - LA 20347-AU20-LEDT BC H 3 12:52:02.80 1318.466 00:16:03 Yes
33 Sly's Loft - AL 20497-AU20-MOBM BC H 1 12:52:02.80 1318.466 00:16:03 Yes
35 Jed Loft - LA 2022-AU20-JED BB C 1 12:52:03.10 1318.446 00:16:03 Yes
36 Randolph Racers - AL 20507-AU20-MOBM DELL MASTER BC 0 1 12:52:11.10 1317.909 00:16:11 Yes
37 Ron Talbot /Jimmy Fernandez - LA 3453-AU20-BAYO BC C 1 12:52:44.70 1315.657 00:16:45 Yes
38 Flying M Loft - AL 20563-AU20-MOBM BB C 1 13:16:35.20 1226.440 00:40:35 Yes
39 Mike's Loft - MS 6780-AU20-SMRP SLV H 1 13:16:35.70 1226.411 00:40:36 Yes
40 New Orleans Boys 2 - LA 20504-AU20-MET RC H 1 13:16:38.00 1226.277 00:40:38 Yes
41 B & J Loft - FL 0031-AU20-CRP GRZ H 2 13:22:36.10 1205.811 00:46:36 Yes
42 Kabarako Loft - FL 13411-AU20-ARPU SAUCY HEAT BB H 1 13:22:41.60 1205.502 00:46:42 Yes
43 Dale Alexander - LA 20478-AU20-MET DCWF C 1 13:33:50.50 1169.065 00:57:51 Yes
44 Hoosierboy's Loft - FL 0137-AU20-HOOS BB H 1 13:34:09.20 1168.078 00:58:09 Yes
45 Radd - OK 4265-AU20-ARPU 139/1743 CS BB C 1 13:34:12.20 1167.920 00:58:12 Yes
46 Kelley & Buckner - TX 0045-AU20-DENT BC C 3 13:34:14.20 1167.815 00:58:14 Yes
47 Roberts Family Loft - TX 0010-AU20-ROBE BB 1 1 13:35:42.30 1163.189 00:59:43 Yes
48 Kelley & Buckner - TX 0041-AU20-DENT BB C 4 13:43:25.20 1139.475 01:07:25 Yes
49 Kelley & Buckner - TX 0059-AU20-DENT H 5 13:49:39.30 1121.005 01:13:40 Yes
50 Dyer - AL 3559-AU20-VITA BBWF H 3 13:57:56.50 1097.364 01:21:57 Yes
51 Lonestar Loft - TX 0239-AU20-DENT BC C 1 14:02:18.10 1085.321 01:26:18 Yes
52 Pidg-Inn - AL 6462-AU20-FOYS 007 BBWF H 2 14:16:00.30 1049.136 01:40:01 Yes
53 Wareagle Loft - AL 0636-AU20-WEL SIL 0 1 14:31:32.90 1010.905 01:55:33 Yes
54 New Orleans Boys 2 - LA 20073-AU20-MET BB 0 2 14:54:53.40 958.457 02:18:54 Yes
55 Texas Holiday Derby - TX 0754-AU20-NSL "13108 X 2940414" SLAT C 2 15:00:44.60 946.147 02:24:45 Yes
56 Ron Talbot /Jimmy Fernandez - LA 3454-AU20-BAYO BC C 2 15:17:53.80 911.827 02:41:54 Yes
57 Randolph Racers - AL 20533-AU20-MOBM Orient express DCWF C 2 15:29:38.80 889.720 02:53:39 Yes
58 Capistrano Loft - FL 21448-AU20-ARPU BCWF C 1 16:09:32.80 822.043 03:33:33 Yes
59 Hynes - LA 20463-AU20-MET BC H 3 16:27:02.60 795.508 03:51:03 Yes
60 Hynes - LA 20462-AU20-MET BB C 4 16:29:00.70 792.630 03:53:01 Yes
61 Credeur Family Loft - LA 0980-AU20-CFL BC C 3 16:33:28.60 786.177 03:57:29 Yes
62 Aucoin Loft - LA 2029-AU20-AUCO BC C 1 07:24:19.10 583.373 07:08:09 Yes
63 R & M Lofts - TX 9182-AU20-AA BC H 2 2020-10-19 07:31:05.70 579.185 07:13:30 Yes
64 Flying M Loft - AL 20106-AU20-MOBM BB C 2 2020-10-19 08:20:22.20 543.230 08:02:47 Yes
65 Randolph Racers - AL 20515-AU20-MOBM Jersey Cash BC H 3 2020-10-19 08:27:09.30 538.626 08:09:34 Yes
66 Lonestar Loft - TX 0345-AU20-DENT RC H 2 2020-10-19 08:34:54.40 533.461 08:17:19 Yes
67 Bruce Daehn - FL 0410-AU20-NWFI BB H 1 2020-10-19 08:44:55.10 526.934 08:27:19 Yes
68 Flying M Loft - AL 20579-AU20-MOBM BB C 3 2020-10-19 10:22:19.40 470.885 10:04:44 Yes
69 Lonestar Loft - TX 0332-AU20-DENT SLV C 3 2020-10-19 11:43:56.50 432.349 11:26:21 Yes
70 Hi-Cal Connection - CA 0848-AU20-HICA BB H 1 2020-10-19 13:36:02.60 388.663 13:18:27 Yes
71 C F L - LA 0988-AU20-CFL BC C 1 2020-10-20 10:15:29.80 262.043 22:14:32 Yes
0 Wareagle Loft - AL 0635-AU20-WEL RC 0 00:00:00.00 0.000 Yes
0 Randy & Joe - TX 0077-AU20-NBC RC H 00:00:00.00 0.000 Yes
0 Two Cousins - LA 3615-AU20-BAYO BB H 00:00:00.00 0.000 Yes
0 Pidg-Inn - AL 6460-AU20-FOYS CLYDE BBWF H 00:00:00.00 0.000 Yes
0 Dyer - AL 3552-AU20-VITA BC C 00:00:00.00 0.000 Yes
0 Ledet-Gutrz - LA 20343-AU20-LEDT BB C 00:00:00.00 0.000 Yes
0 Ledet-Gutrz - LA 20185-AU20-LEDT BB H 00:00:00.00 0.000 Yes
0 T & A Loft - AL 20057-AU20-MET BB H 00:00:00.00 0.000 Yes
0 Dale Alexander - LA 20488-AU20-MET SLV C 00:00:00.00 0.000 Yes
0 Sly's Loft - AL 20491-AU20-MOBM BC H 00:00:00.00 0.000 Yes
0 English Syndicate - UK 14631-GB20-E DC C 00:00:00.00 0.000 Yes
0 C F L - LA 0979-AU20-CFL BB C 00:00:00.00 0.000 Yes
0 Flying M Loft - AL 20567-AU20-MOBM BC C 00:00:00.00 0.000 Yes
0 Roberts Family Loft - TX 3512-AU20-FOYS WHIT C 00:00:00.00 0.000 Yes
0 Aucoin Loft - LA 20289-AU20-MET BC H 00:00:00.00 0.000 Yes

There are 110 bird records

Note: These Race Results are unofficial and subject to change until verified by the Race Committee and declared final.